Stations météo

réclame
Mon MeteoGroup
Cap Bear, France (7749): Température de l'air & dewpoint: 18.10.2018 01:00:00 - 24.10.2018 01:00:00 (CEST)Cap Bear, France (7749): Vitesse du vent & gusts: 18.10.2018 01:00:00 - 24.10.2018 01:00:00 (CEST)Cap Bear, France (7749): Direction du vent: 18.10.2018 01:00:00 - 24.10.2018 01:00:00 (CEST)Cap Bear, France (7749): reduced air pressure: 18.10.2018 01:00:00 - 24.10.2018 01:00:00 (CEST)Cap Bear, France (7749): visibility: 18.10.2018 01:00:00 - 24.10.2018 01:00:00 (CEST)Cap Bear, France (7749): Quantités de précipitations: 18.10.2018 01:00:00 - 24.10.2018 01:00:00 (CEST)
Date & Time tt [°C] td [°C] ff [km/h] ff [knt] fx [km/h] fx [knt] dd ppp [hPa] vv [km] rr [mm]
24.10.2018 01:00:00 18,4 6,9 54 29 71 39 NW 1023,1 - 0,0
24.10.2018 00:00:00 18,6 5,8 48 26 73 39 NW 1023,8 - 0,0
23.10.2018 23:00:00 18,7 5,9 50 27 79 43 NW 1023,4 - 0,0
23.10.2018 22:00:00 19,0 5,8 46 25 75 41 NW 1023,6 - 0,0
23.10.2018 21:00:00 19,0 5,8 48 26 77 41 NW 1023,6 - 0,0
23.10.2018 20:00:00 18,9 6,0 45 24 71 38 NW 1023,7 20 0,0
23.10.2018 19:00:00 19,6 6,3 41 22 61 33 NW 1023,9 - 0,0
23.10.2018 18:00:00 20,9 7,5 48 26 63 34 NW 1023,1 - 0,0
23.10.2018 17:00:00 21,4 9,0 45 24 54 29 NW 1023,5 - 0,0
23.10.2018 16:00:00 21,4 12,3 42 23 48 26 N 1023,6 - 0,0
23.10.2018 15:00:00 21,9 13,0 34 18 41 22 N 1023,8 - 0,0
23.10.2018 14:00:00 21,0 10,8 35 19 40 21 NNW 1024,5 20 0,0
23.10.2018 13:00:00 20,6 11,0 34 18 46 25 NNW 1025,0 - 0,0
23.10.2018 12:00:00 19,6 10,3 34 18 53 28 NNW 1025,5 - 0,0
23.10.2018 11:00:00 18,5 7,9 43 23 59 32 NW 1025,3 18 0,0
23.10.2018 10:00:00 17,5 7,8 48 26 61 33 NW 1025,2 - 0,0
23.10.2018 09:00:00 16,3 8,8 48 26 74 40 NW 1025,2 - 0,0
23.10.2018 08:00:00 15,8 8,5 48 26 74 40 NW 1024,7 - 0,0
23.10.2018 07:00:00 16,1 8,8 47 25 74 40 NW 1024,4 - 0,0
23.10.2018 06:00:00 16,2 9,6 49 26 69 37 NW 1024,3 - 0,0
23.10.2018 05:00:00 16,5 10,3 50 27 60 33 NW 1023,9 15 0,0
23.10.2018 04:00:00 16,4 10,7 48 26 65 35 NNW 1023,7 - 0,0
23.10.2018 03:00:00 16,9 11,6 53 29 66 36 NNW 1023,3 - 0,0
23.10.2018 02:00:00 17,0 11,5 52 28 70 38 NNW 1023,9 - 0,0
23.10.2018 01:00:00 17,3 11,6 53 29 69 37 NNW 1024,1 - 0,0
23.10.2018 00:00:00 17,3 11,8 54 29 75 40 NW 1023,7 - 0,0
22.10.2018 23:00:00 17,8 12,7 59 32 72 39 NNW 1023,2 - 0,0
22.10.2018 22:00:00 17,7 12,2 50 27 68 37 NW 1022,8 - 0,0
22.10.2018 21:00:00 17,7 11,5 43 23 72 39 NW 1022,3 - 0,0
22.10.2018 20:00:00 18,2 11,5 38 21 68 37 NW 1022,0 20 0,0
22.10.2018 19:00:00 19,3 11,3 38 21 62 34 NW 1021,2 - 0,0
22.10.2018 18:00:00 20,0 11,7 45 24 55 30 NNW 1020,6 - 0,0
22.10.2018 17:00:00 20,1 12,1 39 21 49 26 NNW 1020,3 - 0,0
22.10.2018 16:00:00 20,0 12,0 45 24 62 34 N 1019,9 - 0,0
22.10.2018 15:00:00 20,7 12,7 42 23 49 27 N 1020,2 - 0,0
22.10.2018 14:00:00 21,5 14,4 38 21 49 26 N 1020,5 - 0,0
22.10.2018 13:00:00 20,5 14,4 35 19 40 22 N 1021,3 - 0,0
22.10.2018 12:00:00 19,2 13,8 14 8 20 11 N 1021,5 - 0,0
22.10.2018 11:00:00 19,1 13,7 18 10 27 15 N 1021,7 18 0,0
22.10.2018 10:00:00 18,3 13,2 22 12 38 21 NNW 1021,7 - 0,0
22.10.2018 09:00:00 17,7 13,0 31 17 51 28 NNW 1021,2 - 0,0
22.10.2018 08:00:00 18,3 13,6 45 25 59 32 N 1020,2 18 0,0
22.10.2018 07:00:00 18,4 14,1 49 26 63 34 N 1019,6 - 0,0
22.10.2018 06:00:00 18,5 14,6 54 29 69 38 N 1019,0 - 0,0
22.10.2018 05:00:00 18,6 14,7 58 31 66 36 N 1018,1 18 0,0
22.10.2018 04:00:00 19,2 14,0 45 24 54 29 N 1018,4 - 0,0
22.10.2018 03:00:00 19,3 14,5 39 21 71 38 NNW 1018,2 - 0,0
22.10.2018 02:00:00 19,7 13,6 44 24 71 38 NW 1017,2 - 0,0
22.10.2018 01:00:00 19,5 13,9 46 25 81 44 NW 1016,7 - 0,0
22.10.2018 00:00:00 20,2 14,3 60 32 91 49 NW 1016,1 - 0,0
21.10.2018 23:00:00 20,6 13,5 51 28 76 41 NW 1016,4 - 0,0
21.10.2018 22:00:00 20,5 12,7 41 22 67 36 NW 1016,6 - 0,0
21.10.2018 21:00:00 20,7 13,2 46 25 63 34 NW 1016,2 - 0,0
21.10.2018 20:00:00 21,4 12,3 42 23 55 30 NW 1016,1 18 0,0
21.10.2018 19:00:00 21,8 12,4 30 16 46 25 NW 1016,4 - 0,0
21.10.2018 18:00:00 20,5 15,7 12 7 23 13 NNW 1016,7 - 0,0
21.10.2018 17:00:00 19,8 16,8 6 3 16 8 S 1017,4 20 0,0
21.10.2018 16:00:00 19,9 16,5 9 5 15 8 SSE 1018,3 - 0,0
21.10.2018 15:00:00 20,0 16,2 8 4 17 9 SE 1019,0 - 0,0
21.10.2018 14:00:00 20,2 16,6 7 4 13 7 ESE 1019,9 20 0,0
21.10.2018 13:00:00 19,7 15,8 4 2 10 6 NE 1020,9 - 0,0
21.10.2018 12:00:00 18,6 15,1 6 4 11 6 NNE 1021,7 - 0,0
21.10.2018 11:00:00 19,1 15,2 4 2 10 6 SE 1021,9 18 0,0
21.10.2018 10:00:00 18,2 15,3 7 4 10 5 SSE 1022,2 - 0,0
21.10.2018 09:00:00 17,4 13,1 8 4 17 9 NW 1021,9 - 0,0
21.10.2018 08:00:00 15,4 13,8 10 5 15 8 NNW 1021,8 18 0,0
21.10.2018 07:00:00 15,8 14,5 12 7 19 10 NNW 1022,0 - 0,0
21.10.2018 06:00:00 17,4 14,7 13 7 19 11 NW 1022,1 - 0,0
21.10.2018 05:00:00 16,1 15,1 14 8 19 10 NW 1022,2 - 0,0
21.10.2018 04:00:00 16,7 15,6 16 9 24 13 NW 1022,4 - 0,0
21.10.2018 03:00:00 17,3 15,3 18 10 25 13 NW 1022,7 - 0,0
21.10.2018 02:00:00 19,6 15,0 22 12 26 14 NW 1022,7 - 0,0
21.10.2018 01:00:00 18,5 14,4 23 12 27 14 NW 1023,2 - 0,0
21.10.2018 00:00:00 18,5 14,0 11 6 19 10 NNW 1023,6 - 0,0
20.10.2018 23:00:00 18,4 14,7 14 8 18 10 NNW 1023,7 - 0,0
20.10.2018 22:00:00 18,6 14,1 10 6 14 8 N 1023,4 - 0,0
20.10.2018 21:00:00 18,8 16,6 13 7 17 9 N 1023,2 - 0,0
20.10.2018 20:00:00 18,9 16,9 12 7 14 7 NNW 1022,7 15 0,0
20.10.2018 19:00:00 18,9 16,9 5 3 8 4 N 1022,3 - 0,0
20.10.2018 18:00:00 19,3 17,4 6 3 13 7 N 1022,3 - 0,0
20.10.2018 17:00:00 19,8 17,8 11 6 16 8 N 1022,2 12 0,0
20.10.2018 16:00:00 20,0 17,2 14 8 18 10 N 1022,5 - 0,0
20.10.2018 15:00:00 21,3 17,3 14 7 19 10 N 1023,0 - 0,0
20.10.2018 14:00:00 21,0 16,8 13 7 21 11 N 1023,3 - 0,0
20.10.2018 13:00:00 20,0 14,8 18 10 36 19 NNW 1023,8 - 0,0
20.10.2018 12:00:00 19,5 14,9 24 13 40 22 NNW 1023,5 - 0,0
20.10.2018 11:00:00 18,3 15,5 27 15 31 17 NNW 1023,2 15 0,0
20.10.2018 10:00:00 18,9 15,0 24 13 29 16 NNW 1022,9 - 0,0
20.10.2018 09:00:00 17,8 14,3 22 12 28 15 NW 1022,3 - 0,0
20.10.2018 08:00:00 17,5 14,9 18 10 22 12 N 1021,2 20 0,0
20.10.2018 07:00:00 16,9 15,2 16 8 21 12 NNW 1020,8 - 0,0
20.10.2018 06:00:00 17,5 15,7 16 9 22 12 NW 1020,6 - 0,0
20.10.2018 05:00:00 18,7 15,2 19 10 29 16 NW 1019,9 20 0,0
20.10.2018 04:00:00 19,0 14,5 24 13 32 17 NNW 1020,0 - 0,0
20.10.2018 03:00:00 19,5 14,7 25 13 35 19 NW 1020,1 - 0,0
20.10.2018 02:00:00 19,8 14,2 27 14 33 18 NW 1019,6 - 0,0
20.10.2018 01:00:00 18,9 14,6 25 13 29 15 NW 1019,7 - 0,0
20.10.2018 00:00:00 19,6 14,4 26 14 29 16 NW 1019,8 - 0,0
19.10.2018 23:00:00 19,2 14,7 19 11 23 13 NW 1019,4 - 0,0
19.10.2018 22:00:00 18,0 15,8 18 10 26 14 NW 1018,9 - 0,0
19.10.2018 21:00:00 19,1 14,6 25 13 29 16 NW 1018,6 - 0,0
19.10.2018 20:00:00 19,1 14,4 22 12 27 15 NW 1018,4 18 0,0
19.10.2018 19:00:00 18,7 15,6 17 9 22 12 NNW 1017,8 - 0,0
19.10.2018 18:00:00 19,0 15,5 13 7 16 9 N 1017,6 - 0,0
19.10.2018 17:00:00 19,4 15,7 16 8 23 12 N 1017,7 - 0,0
19.10.2018 16:00:00 19,5 15,6 21 11 26 14 N 1017,6 - 0,0
19.10.2018 15:00:00 19,3 15,4 25 13 31 17 N 1017,4 - 0,0
19.10.2018 14:00:00 19,8 14,8 29 15 31 17 N 1017,7 - 0,0
19.10.2018 13:00:00 19,6 14,6 25 14 32 18 NNW 1018,2 - 0,0
19.10.2018 12:00:00 19,6 14,0 28 15 32 17 NNW 1018,1 - 0,0
19.10.2018 11:00:00 18,9 14,0 26 14 33 18 NNW 1017,9 - 0,0
19.10.2018 10:00:00 18,8 14,1 29 16 37 20 NNW 1017,4 - 0,0
19.10.2018 09:00:00 18,4 14,1 29 16 38 20 NNW 1016,9 - 0,0
19.10.2018 08:00:00 18,9 13,7 27 14 35 19 NNW 1016,1 18 0,0
19.10.2018 07:00:00 18,2 14,7 29 16 36 19 NNW 1015,4 - 0,0
19.10.2018 06:00:00 19,0 13,8 27 15 36 20 NNW 1015,4 - 0,0
19.10.2018 05:00:00 19,6 13,3 23 12 32 17 NNW 1015,5 18 0,0
19.10.2018 04:00:00 19,5 13,4 25 14 40 22 NNW 1015,2 - 0,0
19.10.2018 03:00:00 19,5 14,3 27 15 40 22 NNW 1015,0 - 0,0
19.10.2018 02:00:00 19,7 13,6 29 15 46 25 NW 1015,1 - 0,0
19.10.2018 01:00:00 19,1 14,4 30 16 46 25 NW 1015,0 - 0,0
19.10.2018 00:00:00 19,7 13,6 33 18 41 22 NW 1014,7 - 0,0
18.10.2018 23:00:00 19,4 13,6 32 17 41 22 NW 1014,7 - 0,0
18.10.2018 22:00:00 19,0 13,4 32 18 41 22 NW 1014,1 - 0,0
18.10.2018 21:00:00 18,8 13,9 34 19 42 23 WNW 1014,0 - 0,0
18.10.2018 20:00:00 18,6 13,9 33 18 40 21 WNW 1013,7 18 0,0
18.10.2018 19:00:00 18,4 14,1 30 16 40 21 WNW 1013,7 - 0,0
18.10.2018 18:00:00 18,5 14,6 33 18 46 25 WNW 1013,2 - 0,0
18.10.2018 17:00:00 18,5 15,4 26 14 42 23 NW 1013,2 18 0,0
18.10.2018 16:00:00 18,2 15,8 32 17 40 22 NW 1013,2 - 0,0
18.10.2018 15:00:00 17,7 16,0 28 15 37 20 NW 1013,6 - 0,0
18.10.2018 14:00:00 17,0 15,7 29 16 46 25 NW 1013,9 10 0,0
18.10.2018 13:00:00 16,8 15,7 28 15 35 19 NW 1014,2 - 0,0
18.10.2018 12:00:00 16,7 15,7 23 12 39 21 NW 1014,5 - 0,0
18.10.2018 11:00:00 16,5 15,9 24 13 45 24 NW 1014,3 6 0,0
18.10.2018 10:00:00 16,5 16,0 17 9 38 21 NNW 1014,1 - 0,0
18.10.2018 09:00:00 16,0 15,7 21 12 40 22 NW 1013,6 - 0,8
18.10.2018 08:00:00 15,6 15,3 33 18 46 25 NW 1013,2 6 0,6
18.10.2018 07:00:00 16,9 16,7 37 20 59 32 N 1013,1 - 0,4
18.10.2018 06:00:00 15,7 15,5 48 26 75 40 NW 1012,3 - 11,1
18.10.2018 05:00:00 15,8 15,6 33 18 58 31 NW 1012,7 5 9,5
18.10.2018 04:00:00 15,7 15,4 32 17 46 25 NW 1013,2 - 3,5
18.10.2018 03:00:00 16,0 15,5 33 18 41 22 NW 1013,9 - 4,4
18.10.2018 02:00:00 16,8 15,3 32 17 40 22 NW 1014,2 - 0,0
18.10.2018 01:00:00 17,3 15,3 26 14 37 20 NW 1014,6 - 0,0

tt = Température de l'air
td = dewpoint
ff = Vitesse du vent
fx = gusts
dd = Direction du vent
ppp = reduced air pressure
vv = visibility
rr = Quantités de précipitations

stations d'obs. à proximité